ワイズ彗星

P/2020 Y1 ( WISE )

English version
Home page
Updated on January 9, 2021

---------------------------------------------------------------------

・ プロフィール

検出日 2020年12月19日
検出光度 20.1等
検出者 Q.-z. Ye, J. M. Bauer, T. Farnham, L. Feaga, M. S. P. Kelley (Lowell Discovery Telescope)

・ 軌道要素

Epoch 2020 Dec. 17.0 TT = JDT 2459200.5                                         
T 2020 Dec. 5.37894 TT                                  Bell                    
q   1.6175445            (2000.0)            P               Q                  
n   0.17967884     Peri.  155.92043     -0.91885031     -0.39459957             
a   3.1103178      Node     0.84879     +0.33215422     -0.77656251             
e   0.4799424      Incl.    8.93098     +0.21304384     -0.49116377             
P   5.49                                                                        
From 58 observations 2010 Jan. 22-2020 Dec. 20, mean residual 0".6.             

・ 光度変化

        m1 = 17.0 + 5 logΔ + 10.0 log r

---------------------------------------------------------------------

軌道要素はM.P.E.C. 2021-A76に掲載されたものです。
光度グラフはComet for Windowsで作成したものです。

---------------------------------------------------------------------

Copyright(C) Seiichi Yoshida (comet@aerith.net). All rights reserved.